Flag for Greenland Weather past 2 weeks in Thule Air Base, Greenland

Now
-13 °F

Clear.


Feels Like: -33 °F
Forecast: -20 / -8 °F
Wind: 12 mph from East

Location: Thule A. B.

Current Time: Apr 1, 2015 at 5:45:19 AM

Latest Report: Apr 1, 2015 at 4:58 AM


Visibility: N/A

Pressure: 30.08 "Hg

Humidity: 63%

Dew point: -22 °F

Location of Thule Air BaseLocation

Historic Weather in Thule Air Base — Graph

°F

Thule Air Base temperature yesterday

Maximum temperature yesterday: 1 °F (at 12:58 PM)
Minimum temperature yesterday: -13 °F (at 6:58 AM)
Average temperature yesterday: -5 °F

Past Weeks' High & Low Weather Summary

 TemperatureHumidityPressure
High19 °F (Mar 17, 7:58 PM)92% (Mar 17, 7:58 AM)30.30 "Hg (Mar 17, 7:58 AM)
Low-15 °F (Mar 30, 12:58 AM)53% (Mar 17, 7:58 PM)29.01 "Hg (Mar 25, 3:58 PM)
Average2 °F70%29.60 "Hg
* Reported Mar 17 3:58 AM — Apr 1 3:58 AM, Thule Air Base, Weather by CustomWeather, © 2015

Note: Actual official high and low records may vary slightly from our data, if they occured in-between our weather recording intervals... More about our weather records

Advertising

Thule Air Base weather history for previous 24 hours

 ConditionsComfort  
Time TempWeatherWind HumidityBarometerVisibility
3:58 AM
Wed, Apr 1
-13 °FClear.13 mph63%30.08 "HgN/A
2:58 AM-13 °FClear.12 mph63%30.09 "HgN/A
1:58 AM-11 °FClear.13 mph70%30.09 "HgN/A
12:58 AM-9 °FClear.12 mph64%30.09 "HgN/A
11:58 PM
Tue, Mar 31
-9 °FClear.13 mph64%30.09 "HgN/A
10:58 PM-13 °FSunny.10 mph69%30.10 "HgN/A
9:58 PM-9 °FSunny.8 mph64%30.09 "HgN/A
8:58 PM-9 °FSunny.7 mph70%30.11 "HgN/A
7:58 PM-6 °FSunny.5 mph64%30.11 "HgN/A
6:58 PM-4 °FSunny.3 mph65%30.11 "HgN/A
5:58 PM-2 °FSunny.5 mph65%30.11 "HgN/A
4:58 PM-2 °FSunny.2 mph65%30.09 "HgN/A
3:58 PM0 °FSunny.No wind60%30.09 "HgN/A
2:58 PM0 °FSunny.2 mph60%30.08 "HgN/A
1:58 PM0 °FSunny.6 mph65%30.07 "HgN/A
12:58 PM1 °FSunny.2 mph55%30.06 "HgN/A
11:58 AM0 °FSunny.2 mph54%30.04 "HgN/A
10:58 AM-2 °FSunny.No wind59%30.02 "HgN/A
9:58 AM-2 °FSunny.13 mph54%30.00 "HgN/A
8:58 AM-6 °FSunny.12 mph64%29.98 "HgN/A
7:58 AM-9 °FClear.9 mph64%29.96 "HgN/A
6:58 AM-13 °FClear.9 mph69%29.93 "HgN/A
5:58 AM-11 °FClear.7 mph63%29.89 "HgN/A
Weather by CustomWeather, © 2015

See weather overviewHow to use our weather pages